This is the latest recevied weather packets stored in our database for station/object AE5EW. If no packets are shown the sender has not sent any weather packets the latest 10 day(s).
| Time | Temp. | Humidity | Pressure | Rain* | Wind** | Luminosity | Snow |
|---|---|---|---|---|---|---|---|
| 1788106273 | 31.11° C | 68% | 1021.4 hPa | 0 mm | - | - | - |
| 1788105969 | 31.11° C | 71% | 1021.4 hPa | 0 mm | - | - | - |
| 1788105664 | 30.56° C | 72% | 1021.2 hPa | 0 mm | - | - | - |
| 1788105360 | 30.56° C | 70% | 1021.4 hPa | 0 mm | - | - | - |
| 1788105056 | 31.11° C | 72% | 1021.4 hPa | 0 mm | - | - | - |
| 1788104750 | 30.56° C | 72% | 1021.5 hPa | 0 mm | - | - | - |
| 1788104447 | 31.11° C | 72% | 1021.4 hPa | 0 mm | - | - | - |
| 1788104143 | 30° C | 74% | 1021.3 hPa | 0 mm | - | - | - |
| 1788103842 | 30.56° C | 73% | 1021.3 hPa | 0 mm | - | - | - |
| 1788103537 | 30° C | 75% | 1021.3 hPa | 0 mm | - | - | - |
| 1788103237 | 29.44° C | 76% | 1021.2 hPa | 0 mm | - | - | - |
| 1788102936 | 28.89° C | 77% | 1021.1 hPa | 0 mm | - | - | - |
| 1788102631 | 29.44° C | 77% | 1021.3 hPa | 0 mm | - | - | - |
| 1788102330 | 29.44° C | 75% | 1021.2 hPa | 0 mm | - | - | - |
| 1788102026 | 30° C | 75% | 1021 hPa | 0 mm | - | - | - |
| 1788101725 | 28.33° C | 80% | 1021 hPa | 0 mm | - | - | - |
| 1788101421 | 28.33° C | 79% | 1021.1 hPa | 0 mm | - | - | - |
| 1788101116 | 28.33° C | 80% | 1021 hPa | 0 mm | - | - | - |
| 1788100812 | 28.89° C | 78% | 1021 hPa | 0 mm | - | - | - |
| 1788100508 | 28.33° C | 81% | 1020.9 hPa | 0 mm | - | - | - |
| 1788100206 | 28.33° C | 81% | 1021.2 hPa | 0 mm | - | - | - |
| 1788099901 | 27.78° C | 81% | 1021 hPa | 0 mm | - | - | - |
| 1788099595 | 28.33° C | 81% | 1020.9 hPa | 0 mm | - | - | - |
| 1788099291 | 27.78° C | 81% | 1021 hPa | 0 mm | - | - | - |
| 1788098986 | 27.78° C | 82% | 1021.2 hPa | 0 mm | - | - | - |
* Rain latest hour (hover to see other rain measurements)
** Current wind speed in m/s (hover to see current wind gust speed)